{"data":{"norad_id":40976,"intl_designator":"2015-058N","name":"PROPCUBE 1 (FLORA)","alt_names":[],"object_type":"PAYLOAD","status":"ACTIVE","operator":null,"country":"US","launch_date":"2015-10-08","launch_site_code":"AFWTR","launch_vehicle":null,"mission":null,"orbit_class":"UNKNOWN","rcs_meters":null,"size_class":null,"mass_kg":null,"dimensions":null,"purposes":["tech_demo"],"wikipedia_slug":null,"has_3d_model":false,"image_url":null,"decayed_at":null,"tle_current":{"epoch":"2026-05-25T02:15:24.846048Z","epoch_age_seconds":62806,"freshness":"FRESH","line1":"1 40976U 15058N   26145.09403757  .00002796  00000+0  26832-3 0  9995","line2":"2 40976  64.7761   6.8014 0129954  69.9714 291.5333 14.89072710112823","mean_motion":14.8907271,"eccentricity":0.0129954,"inclination_deg":64.7761,"raan_deg":6.8014,"arg_perigee_deg":69.9714,"mean_anomaly_deg":291.5333,"bstar":0.00026832,"rev_number":11282,"period_min":96.704478587886,"perigee_km":510.13701651548,"apogee_km":691.5259911043,"semimajor_km":6978.9685038099,"source":"CELESTRAK","updated_at":"2026-05-25T13:38:25.527509Z"}}}